Flag for Qatar Weather past 2 weeks in Al-Jamiliyah, Qatar

Now
90 °F

Sunny.


Feels Like: 86 °F
Forecast: 72 / 97 °F
Wind: 13 mph from North

Location: Al Udeid

Current Time: Apr 21, 2015 at 6:45:50 PM

Latest Report: Apr 21, 2015 at 5:58 PM


Visibility: N/A

Pressure: 29.87 "Hg

Humidity: 7%

Dew point: 19 °F

Location of Al-JamiliyahLocation

Historic Weather in Al-Jamiliyah — Graph

°F

Al-Jamiliyah temperature yesterday

Maximum temperature yesterday: 93 °F (at 1:58 PM)
Minimum temperature yesterday: 64 °F (at 1:58 AM)
Average temperature yesterday: 79 °F

Past Weeks' High & Low Weather Summary

 TemperatureHumidityPressure
High110 °F (Apr 12, 1:58 PM)84% (Apr 12, 4:58 AM)30.02 "Hg (Apr 12, 4:58 AM)
Low64 °F (Apr 21, 4:58 AM)6% (Apr 12, 1:58 PM)29.75 "Hg (Apr 12, 2:58 PM)
Average83 °F36%29.88 "Hg
* Reported Apr 6 5:58 PM — Apr 21 5:58 PM, Al-Jamiliyah, Weather by CustomWeather, © 2015

Note: Actual official high and low records may vary slightly from our data, if they occured in-between our weather recording intervals... More about our weather records

Advertising

Al-Jamiliyah weather history for previous 24 hours

 ConditionsComfort  
Time TempWeatherWind HumidityBarometerVisibility
5:58 PM
Tue, Apr 21
90 °FSunny.13 mph7%29.87 "HgN/A
4:58 PM93 °FSunny.16 mph6%29.85 "HgN/A
3:58 PM95 °FSunny.16 mph6%29.85 "HgN/A
2:58 PM95 °FSunny.22 mph7%29.86 "HgN/A
1:58 PM96 °FSunny.21 mph6%29.87 "HgN/A
12:58 PM94 °FClear.20 mph8%29.90 "HgN/A
11:58 AM94 °FClear.17 mph8%29.92 "HgN/A
10:58 AM91 °FClear.12 mph12%29.93 "HgN/A
9:58 AM89 °FPartly cloudy.9 mph13%29.95 "HgN/A
8:58 AM86 °FPassing clouds.13 mph18%29.96 "HgN/A
7:58 AM80 °FClear.9 mph32%29.95 "HgN/A
6:58 AM71 °FClear.8 mph56%29.94 "HgN/A
5:58 AM66 °FClear.10 mph62%29.91 "HgN/A
4:58 AM64 °FClear.8 mph63%29.90 "HgN/A
3:58 AM64 °FClear.9 mph58%29.90 "HgN/A
2:58 AM65 °FClear.9 mph54%29.89 "HgN/A
1:58 AM66 °FSunny.8 mph53%29.89 "HgN/A
12:58 AM69 °FSunny.7 mph44%29.90 "HgN/A
11:58 PM
Mon, Apr 20
71 °FSunny.6 mph39%29.91 "HgN/A
10:58 PM73 °FSunny.6 mph37%29.93 "HgN/A
9:58 PM74 °FSunny.13 mph28%29.93 "HgN/A
8:58 PM76 °FSunny.12 mph25%29.94 "HgN/A
7:58 PM79 °FSunny.14 mph21%29.93 "HgN/A
6:58 PM82 °FSunny.15 mph17%29.92 "HgN/A
Weather by CustomWeather, © 2015

See weather overviewHow to use our weather pages